Regional Weather Roundup
Issued by NWS New Orleans/Baton Rouge, LA

Home | Current Version | Previous Version | Text Only | Print | Product List | Glossary On
Versions: 1 2 3 4 5 6 7 8 9 10 11 12 13 14 15 16 17 18 19 20 21 22 23 24 25 26 27 28 29 30 31 32 33 34 35 36 37 38 39 40 41 42 43 44 45 46 47 48 49 50
000
ASUS44 KLIX 291010
RWRLIX
NEW ORLEANS REGIONAL WEATHER ROUNDUP
NATIONAL WEATHER SERVICE NEW ORLEANS LA
400 AM CST MON DEC 29 2014

NOTE: "FAIR" INDICATES FEW OR NO CLOUDS BELOW 12,000 FEET WITH NO
      SIGNIFICANT WEATHER AND/OR OBSTRUCTIONS TO VISIBILITY.
      SKY/WX - SKY CONDITION AND SIGNIFICANT WEATHER.
      TMP - AIR TEMPERATURE.     DP    - DEWPOINT TEMPERATURE.
      RH  - RELATIVE HUMIDITY.   PRES  - PRESSURE.
      HI  - HEAT INDEX.          WCI   - WIND CHILL INDEX.

*  THESE STATIONS ARE NOT NWS OR FAA STATIONS AND ARE NOT UNDER
   NWS QUALITY CONTROL.

LAZ038-040-048-061>063-065>067-069-291100-
SOUTHEAST LOUISIANA

CITY           SKY/WX    TMP DP  RH WIND       PRES   REMARKS
N.O. AUDUBON     N/A     58  54  86 MISG        N/A
N.O. INTL ARPT CLOUDY    56  53  90 NW8       30.08R
N.O. LAKEFRONT CLOUDY    58  54  86 NW10      30.08R
N.O. DOWNTOWN* CLOUDY    57  54  88 NW7       30.08R
SLIDELL        CLOUDY    55  53  93 NW6       30.07R
BATON ROUGE    CLOUDY    49  47  93 N3        30.09R FOG
BOOTHVILLE     LGT RAIN  59  58  96 E9        30.05F
BELLE CHASSE   CLOUDY    58  56  93 CALM      30.07R
BOGALUSA*        N/A     54  51  90 N5        30.10R FOG
GALLIANO*      CLOUDY    61  60  96 MISG      30.07R
NEW ROADS*     CLOUDY    47  47  98 N3        30.10S FOG
GONZALES*      CLOUDY    52  52 100 CALM      30.08R
HAMMOND*       NOT AVBL
HOUMA*         CLOUDY    57  57  98 N6        30.08R FOG
PORT FOURCHON* CLOUDY    61  59  94 E5        30.08F

$$

MSZ070-080>082-291100-
SOUTHERN MISSISSIPPI

CITY           SKY/WX    TMP DP  RH WIND       PRES   REMARKS
MCCOMB         CLOUDY    48  46  93 N3        30.09R FOG
GULFPORT       CLOUDY    57  55  93 CALM      30.04R
BILOXI         MOCLDY    58  58 100 N2        30.04R
PASCAGOULA     CLOUDY    57  56  96 E3        30.01F

$$

COASTAL OBSERVATIONS
LAKE AND NEARSHORE STATIONS

STATION/POSITION TIME  TEMP    WIND        PRES    WAVE
                       AIR SEA DIR/SP/G            HT/PER
                 (UTC) (F)     (DEG/KT/KT) (MB)    (FT/S)
PASCAGOULA       1000   59      70/  9/ 13 1015.9
WAVELAND YACHT   1000   58     330/  3/  3 1016.7
GRAND ISLE       1000   61 64  100/  4/  8 1018.0
SOUTHWEST PASS   1000   58                 1018.6
NEW CANAL        1000   56 58   CALM  /  4 1018.9
SHELL BEACH      1000   59 61   90/  1/  2 1017.5

OFFSHORE STATIONS

STATION/POSITION TIME  TEMP    WIND        PRES    WAVE
                       AIR SEA DIR/SP/G            HT/PER
                 (UTC) (F)     (DEG/KT/KT) (MB)    (FT/S)
64 S DAUPHIN ISL 1000   63 73   10/ 19/ 23 1016.9    5/ 5

$$




USA.gov is the U.S. government's official web portal to all federal, state and local government web resources and services.